Regional Weather Roundup
Issued by NWS

Home | Current Version | Previous Version | Graphics & Text | Print | Product List | Glossary On
Versions: 1 2 3 4 5 6 7 8 9 10 11 12 13 14 15 16 17 18 19 20 21 22 23 24 25 26 27
000
ASUS45 KCYS 210910
RWRWY

WYOMING REGIONAL WEATHER ROUNDUP
NATIONAL WEATHER SERVICE CHEYENNE WY
300 AM MDT SAT OCT 21 2017

NOTE:  "FAIR" INDICATES FEW OR NO CLOUDS BELOW 12,000 FEET
WITH NO SIGNIFICANT WEATHER AND/OR OBSTRUCTIONS TO VISIBILITY.

WYZ001-211000-
YELLOWSTONE NATIONAL PARK

CITY           SKY/WX    TMP DP  RH WIND       PRES   REMARKS
LK YELLOWSTONE   N/A     22  16  78 W8        29.91R WCI  12
W YELLOWSTONE  NOT AVBL

$$
WYZ002>013-054>058-071-098>099-211000-
NORTHERN WYOMING

CITY           SKY/WX    TMP DP  RH WIND       PRES   REMARKS
JACKSON        CLOUDY    25  23  92 SW13      29.94R WCI  14
CODY           FAIR      41  16  36 W15G29    29.78R
GREYBULL       FAIR      37  23  56 W13       29.78R WCI  29
WORLAND        FAIR      30  23  75 CALM      29.79R
SHERIDAN       FAIR      45  19  35 VRB3      29.73R
BUFFALO        FAIR      38  15  39 W8        29.72R WCI  32
GILLETTE       FAIR      42  23  46 NW17      29.71R
HULETT         CLOUDY    43  28  56 W10       29.70R
NEWCASTLE      FAIR      41  28  60 NW18G24   29.69R

$$
WYZ014>020-022>026-101>103-211000-
CENTRAL WYOMING

CITY           SKY/WX    TMP DP  RH WIND       PRES   REMARKS
BIG PINEY      FAIR      21  16  81 NE7       29.96R WCI  12
PINEDALE       FAIR      23  21  93 CALM      29.97R
DUBOIS         FAIR      23  16  74 NW10      29.88R WCI  12
LANDER         FAIR      33  20  58 SW13      29.84S WCI  24
RIVERTON       FAIR      37  17  44 W24G36    29.82R WCI  26
CASPER         MOCLDY    36  17  46 SW8       29.81R WCI  30
DOUGLAS        FAIR      44  17  33 W29G35    29.74R

$$
WYZ021-027>030-104>119-211000-
SOUTHERN WYOMING

CITY           SKY/WX    TMP DP  RH WIND       PRES   REMARKS
EVANSTON       FAIR      27  20  75 SW3       30.03R
KEMMERER       PTSUNNY   27  21  80 W10       29.99  WCI  17
FORT BRIDGER   FAIR      27  21  78 W10       30.04R WCI  17
ROCK SPRINGS   FAIR      27  18  69 W17       29.97R WCI  14
DIXON          FAIR      29  24  80 SW8       30.02R WCI  22
RAWLINS        FAIR      29  18  63 SW21G29   29.90R WCI  16
SARATOGA       PTSUNNY   28  23  80 SW18G26   29.93R WCI  16
LARAMIE        FAIR      30  19  63 NW14      29.83R WCI  19
CHEYENNE       CLOUDY    41  17  38 W31G45    29.70R
TORRINGTON     MOCLDY    49  20  31 W24G33    29.67R
PINE BLUFFS    PTSUNNY   45  14  29 NW32G41   29.69R

$$




USA.gov is the U.S. government's official web portal to all federal, state and local government web resources and services.